Powrót do katalogu

THORAD DELTA 1 DEB

AktywnySSO
NORAD 10990·DEBRIS·🇺🇸 United States

Wystrzelony Nov 15, 1974 z Vandenberg Space Force Base

Loading…

Następne Przeloty (najbliższe 24 godziny)

TLE

ŚwieżeSource: Space-Track

Epoka: Sep 14, 2026, 04:49 UTC

1 10990U 74089EK  26257.20069538 -.00000038  00000-0  24745-4 0  9990
2 10990 101.0614 248.3952 0073883 221.0335 201.1525 12.65100127392568

Śledź THORAD DELTA 1 DEB w czasie rzeczywistym z AllMySat

Download on the App Store